Location: Strawberry
(45.6646°N, 111.9596°W)
Time: 18:10:57
(UTC+00:00)

SR - Pass Details

Date: 09 October 2022
Orbit: 577 x 874 km, 66.7° (Epoch: 05 December)

Event Time Altitude Azimuth Distance (km) Brightness Sun altitude
Rises 03:15:59 0° 219° (SW) 3,435 ? -25.3°
Reaches altitude 10° 03:18:28 10° 222° (SW) 2,514 ? -25.7°
Maximum altitude 03:24:20 69° 305° (NW) 935 ? -26.7°
Enters shadow 03:29:08 16° 27° (NNE) 2,127 ? -27.4°
